Regional Weather Roundup
Issued by NWS

Home | Current Version | Previous Version | Text Only | Print | Product List | Glossary Off
Versions: 1 2 3 4 5 6 7 8 9 10 11 12 13 14 15 16 17 18 19 20 21 22 23 24 25 26 27 28 29 30 31 32 33 34 35 36 37 38 39 40 41 42 43 44 45 46 47 48 49 50

000
ASUS43 KOAX 160010
RWRNE

WEATHER ROUNDUP FOR NEBRASKA
NATIONAL WEATHER SERVICE OMAHA NE
700 PM CDT MON SEP 15 2014

NOTES: SATELLITE DATA IS BEING USED TO AUGMENT CLOUD COVER ABOVE
       12000 FEET.
       "FAIR" INDICATES FEW OR NO CLOUDS BELOW 12,000 FEET WITH NO
       SIGNIFICANT WEATHER AND/OR OBSTRUCTIONS TO VISIBILITY.

  * THESE STATIONS DO NOT REPORT WEATHER SUCH AS RAIN...SNOW OR FOG.

NEZ001>004-019>022-054>056-160100-
NEBRASKA PANHANDLE

CITY           SKY/WX    TMP DP  RH WIND       PRES   REMARKS
SCOTTSBLUFF    SUNNY     70  44  39 SE16      30.18F
6HR MIN TEMP:  60; 6HR MAX TEMP:  73;

ALLIANCE       SUNNY     65  43  44 S16       30.21F
6HR MIN TEMP:  58; 6HR MAX TEMP:  67;

CHADRON        SUNNY     69  45  41 S14       30.15F
6HR MIN TEMP:  60; 6HR MAX TEMP:  72;

KIMBALL        SUNNY     67  45  46 S14       30.23S
SIDNEY         SUNNY     66  44  45 S13       30.25S
6HR MIN TEMP:  59; 6HR MAX TEMP:  68;

$$

NEZ057>060-069>072-079>082-160100-
SOUTHWEST NEBRASKA

CITY           SKY/WX    TMP DP  RH WIND       PRES   REMARKS
NORTH PLATTE   CLEAR     64  45  49 SE5       30.24F
6HR MIN TEMP:  62; 6HR MAX TEMP:  67;

IMPERIAL       CLEAR     67  43  41 SE12      30.24F
6HR MIN TEMP:  61; 6HR MAX TEMP:  68;

LEXINGTON      CLEAR     62  48  59 E3        30.26S
MCCOOK         CLEAR     66  43  43 E5        30.25S
6HR MIN TEMP:  65; 6HR MAX TEMP:  69;

OGALLALA       CLEAR     67  45  44 SE5       30.23S
$$

NEZ005>010-023>029-035>040-094-160100-
NORTH CENTRAL NEBRASKA

CITY           SKY/WX    TMP DP  RH WIND       PRES   REMARKS
VALENTINE      CLEAR     64  36  35 SE9       30.22F
6HR MIN TEMP:  60; 6HR MAX TEMP:  67;

AINSWORTH      CLEAR     60  39  45 CALM      30.24S
BROKEN BOW     CLEAR     64  39  39 E5        30.25S
6HR MIN TEMP:  63; 6HR MAX TEMP:  67;

O`NEILL        CLEAR     60  43  53 CALM      30.25S
ORD            CLEAR     62  40  44 E3        30.24S
6HR MIN TEMP:  60; 6HR MAX TEMP:  65;

THEDFORD       CLEAR     65  39  38 SE8       30.25S
$$

NEZ041-046>049-061>064-073>077-083>087-160100-
SOUTH CENTRAL NEBRASKA

CITY           SKY/WX    TMP DP  RH WIND       PRES   REMARKS
GRAND ISLAND   CLEAR     62  43  49 NE6       30.26S
6HR MIN TEMP:  62; 6HR MAX TEMP:  67;

AURORA         CLEAR     60  43  52 NE6       30.25F
HASTINGS       CLEAR     62  43  49 NE3       30.25S
6HR MIN TEMP:  62; 6HR MAX TEMP:  66;

HEBRON         CLEAR     64  43  47 N5        30.23S
HOLDREGE       CLEAR     62  43  49 CALM      30.25S
KEARNEY *      CLEAR     63  43  48 NE3       30.26S
YORK           CLEAR     59  48  67 NE6       30.25F
$$

NEZ011>018-030>034-042>045-160100-
NORTHEAST NEBRASKA

CITY           SKY/WX    TMP DP  RH WIND       PRES   REMARKS
NORFOLK        CLEAR     60  42  51 CALM      30.25S
6HR MIN TEMP:  60; 6HR MAX TEMP:  64;

ALBION         CLEAR     59  41  51 NE3       30.25S
BLAIR          MOCLDY    60  49  65 N3        30.24S
COLUMBUS *     CLEAR     59  45  58 NE3       30.26S
FREMONT        CLEAR     61  43  51 CALM      30.25S
TEKAMAH        CLEAR     62  45  53 N3        30.24S
6HR MIN TEMP:  60; 6HR MAX TEMP:  66;

WAYNE          CLEAR     59  46  61 E3        30.25S
$$

NEZ050>053-065>068-078-088>093-160100-
SOUTHEAST NEBRASKA

CITY           SKY/WX    TMP DP  RH WIND       PRES   REMARKS
LINCOLN        PTCLDY    61  45  55 NE7       30.25S
6HR MIN TEMP:  61; 6HR MAX TEMP:  67;

OMAHA EPPLEY   MOCLDY    60  46  59 N6        30.24S
6HR MIN TEMP:  60; 6HR MAX TEMP:  65;

BEATRICE       CLEAR     62  46  56 N9        30.23S
FALLS CITY     MOCLDY    63  50  62 N9        30.21R
6HR MIN TEMP:  63; 6HR MAX TEMP:  69;

NEBRASKA CITY  CLEAR     59  39  47 N7        30.24R
PLATTSMOUTH    PTCLDY    57  47  67 NE3       30.24S
$$

NEZ044-045-051>053-067-160100-
OMAHA AREA

CITY           SKY/WX    TMP DP  RH WIND       PRES   REMARKS
OMAHA EPPLEY   MOCLDY    60  46  59 N6        30.24S
6HR MIN TEMP:  60; 6HR MAX TEMP:  65;

BLAIR          MOCLDY    60  49  65 N3        30.24S
FREMONT        CLEAR     61  43  51 CALM      30.25S
MILLARD        CLEAR     60  45  58 CALM      30.23F
OFFUTT AFB     CLOUDY    60  48  64 N5        30.23F
PLATTSMOUTH    PTCLDY    57  47  67 NE3       30.24S
WAHOO          FAIR      60  44  54 N5        30.24S
$$



USA.gov is the U.S. government's official web portal to all federal, state and local government web resources and services.